Regional Weather Roundup
Issued by NWS

Home | Current Version | Previous Version | Graphics & Text | Print | Product List | Glossary On
Versions: 1 2 3 4 5 6 7 8 9 10 11 12 13 14 15 16 17 18 19 20 21 22 23 24 25 26 27 28 29 30 31 32 33 34 35 36 37 38 39 40 41 42 43 44 45 46 47 48 49 50
000
ASUS44 KMEG 221610
RWRTN
TENNESSEE HOURLY STATE WEATHER ROUNDUP
NATIONAL WEATHER SERVICE MEMPHIS TN
1100 AM CDT SAT JUL 22 2017

TNZ002-004-019-021-049-052-054-088>092-221700-
WEST TENNESSEE

CITY           SKY/WX    TMP DP  RH WIND       PRES   REMARKS
MEMPHIS INTL   SUNNY     94  76  55 SW10      29.99F HX 106
NWS MEMPHIS      N/A     92 N/A N/A MISG        N/A
JACKSON        SUNNY     93  76  57 SW8       29.99S HX 105
SOMERVILLE       N/A     91  75  59 SW10      29.99S HX 102
COVINGTON      MOSUNNY   91  79  66 W9        29.98S HX 107
UNION CITY     SUNNY     90  81  74 SW7       29.97S HX 108
BOLIVAR        SUNNY     91  73  55 S9        29.99F HX 100
PARIS          SUNNY     90  79  70 SW9       29.98S HX 105
HUNTINGDON     SUNNY     91  79  66 SW9       29.99R HX 107
LEXINGTON      SUNNY     91  77  62 SW8       30.00S HX 105
SELMER         SUNNY     91  73  55 W7        30.00F HX 100
SAVANNAH       SUNNY     91  75  59 SW7       30.00S HX 102
$$

TNZ008-025-027-028-033-062-065-066-221700-
NORTH MIDDLE TENNESSEE

CITY           SKY/WX    TMP DP  RH WIND       PRES   REMARKS
NASHVILLE      PTSUNNY   92  74  55 W8        30.01R HX 101
PORTLAND       MOSUNNY   91  75  59 VRB6G14   30.00F HX 102
CLARKSVILLE    SUNNY     91  75  59 SW9       29.99S HX 101
SMYRNA         MOSUNNY   92  75  57 W8        30.01S HX 103
COOKEVILLE     SUNNY     90  73  58 VRB5G12   30.03F HX  98
GALLATIN       SUNNY     91  77  62 SW6       30.03S HX 105
CROSSVILLE     MOSUNNY   86  70  58 VRB6      30.10S HX  90
$$

TNZ061-075-076-078-094-096-097-221700-
SOUTH MIDDLE TENNESSEE

CITY           SKY/WX    TMP DP  RH WIND       PRES   REMARKS
FAYETTEVILLE   MOSUNNY   88  77  70 SW7       30.04S HX 100
TULLAHOMA      SUNNY     90  73  58 S6        30.06S HX  98
WINCHESTER     SUNNY     91  75  59 SW6       30.05R HX 102
MCMINNVILLE    SUNNY     90  75  62 W6        30.05R HX 100
COLUMBIA       SUNNY     91  75  59 CALM      30.00S HX 102
SHELBYVILLE    SUNNY     90  77  66 SW7       30.03R HX 102
$$

TNZ017-018-042-046-047-221700-
NORTHEAST TENNESSEE

CITY           SKY/WX    TMP DP  RH WIND       PRES   REMARKS
TRI CITIES     PTSUNNY   90  72  55 SW7       30.05F HX  97
ELIZABETHTON   MOSUNNY   90  72  55 SW5       30.06S HX  96
$$

TNZ012-013-036-069-073-074-221700-
CENTRAL EAST TENNESSEE

CITY           SKY/WX    TMP DP  RH WIND       PRES   REMARKS
KNOXVILLE      MOSUNNY   90  70  51 SW9       30.03R HX  95
OAK RIDGE      SUNNY     90  72  55 S6        30.04S HX  97
DOWNTOWN KNOXV SUNNY     91  73  55 W7        30.02S HX 100
GATLINBURG       N/A     91  70  49 W8        30.03R HX  97
MORRISTOWN     MOSUNNY   90  73  58 VRB6G13   30.04F HX  98
JACKSBORO      SUNNY     90  75  62 S7        30.06F HX 100
$$

TNZ083-085-099-221700-
SOUTHEAST TENNESSEE

CITY           SKY/WX    TMP DP  RH WIND       PRES   REMARKS
CHATTANOOGA    MOSUNNY   90  74  59 VRB5      30.03S HX  99
DAYTON         SUNNY     90  77  66 CALM      30.02S HX 102
$$

SKY/WX REPORTED AS FAIR MEANS FEW OR NO CLOUDS BELOW
12 THOUSAND FEET.





USA.gov is the U.S. government's official web portal to all federal, state and local government web resources and services.